Погода в Серове

Погода в Серове : погода сейчас, прогноз погоды и архив. Всё, что Вы хотите узнать о погоде в Серове!

Поиск расширенной информации на нашем сайте:

Другие новости

Новости СМИ2

Главная страница сайта

Новости сайта

02.10.2013

Напоминаем, что на нашем новом сайте вы можете получить высокодетализированные прогнозы погоды по пунктам России, СНГ и мира (включающие важные для авиации метеовеличины, такие как направление и скорость ветра, видимость, явления погоды, количество и форма облачности, нижняя и верхняя граница облачности), а также ознакомиться с разнообразными материалами по авиационной метеорологии и подборкой полезных ссылок на эту тему.

Сайт Метеоцентр.Азия посвящён разработке технологий оптимизации авиаметеорологического обслуживания, включая проектирование и перспективное создание нескольких автоматизированных авиаметеорологических систем:
- система выпуска высокодетальных прогностических карт явлений погоды для нижнего воздушного пространства по России и ближнему зарубежью;
- система верификации прогнозов TAF (выпускаемых синоптиками официальных АМСГ РФ и ближнего зарубежья) и AUTOTAF (выпускаемых сайтом Метеоцентр.Азия) - выявление ошибок, онлайн-сопоставление с фактической погодой METAR, автоматическое внесение коррективов в прогнозы при резком отклонении фактической погоды от прогноза, подсчёт оправдываемости прогнозов по элементам и в целом;
- система обработки, анализа и отображения авиаметеорологической информации для применения провайдерами метеорологической информации.


Погода в Серове - сегодня

Время (UTC), дата Ветер
(°,м/с) 
Видим.   Явления Облачность Т
(°С)
Тd
(°С)
f(%) Тe
(°С)
Pmin
(гПа)
dP
(гПа)
Po
(мм)
O2
(г/м3)
Тmin Tmax R s Состояние
почвы
06 21.03.17 130 (ЮВ) 20000 м    4/0 верхняя 
[Ci fib]
-1.8 -14.4 38 -3  1028.6  0.2  760  309           
09 21.03.17 130 (ЮВ) 20000 м    8/0 верхняя 
[Ci fib]
+3.7 -13.7 27 +2  1027.9  -0.4  759  303           
12 21.03.17 160 (Ю) 20000 м    8/0 верхняя 
[Ci fib]
+4.6 -12.3 28 +3  1027.5  -0.4  759  302           
15 21.03.17 110 (В) 10 км    9/0 верхняя 
[Cs]
+1.6 -14.6 29 +2  1028.1  0.4  759  305    +4.9       
18 21.03.17 090 (В) 10 км    4/0 верхняя 
[Ci fib]
-0.5 -13.6 36 1028.4  0.1  759  308           
21 21.03.17 090 (В) 10 км    ясно 
-3.1 -13.6 44 -3  1028.4  0.1  759  311           
00 22.03.17 130 (ЮВ) 10 км    ясно 
-4.5 -13.9 48 -4  1028.8  0.3  760  312           
03 22.03.17 110 (В) 20000 м    ясно 
-5.4 -13.2 54 -5  1028.4  -0.5  759  313  -6.1      40  равномерный
мокрый или
старый снег
100% 
06 22.03.17 180 (Ю) 20000 м    9/0 
[Sc]
+0.5 -14.3 32 -1  1028.3  0.2  759  307           
09 22.03.17 160 (Ю) 20000 м    9/9 600 м 
[Sc]
+4.9 -14.2 24 +4  1027.5  -0.6  759  302           
12 22.03.17 180 (Ю) 20000 м    10/10 600 м 
[Sc]
+4.8 -13.1 26 +4  1027  -0.5  759  302           
15 22.03.17 170 (Ю) 10 км    10/10 600 м 
[Sc]
+3.5 -15.4 24 +3  1027  758  303    +6.2       
18 22.03.17 160 (Ю) 10 км    10/10 600 м 
[Sc]
+0.8 -15.7 28 +1  1026.7  -0.4  758  306           
21 22.03.17 190 (Ю) 10 км    8/8 600 м 
[Sc]
-0.7 -14.6 34 -2  1026.7  0.1  758  308           
00 23.03.17 110 (В) 10 км    ясно 
-2.2 -13.3 42 -2  1026.1  -0.6  758  309           
03 23.03.17 110 (В) 20000 м    8/8 600 м 
[Sc]
-3.3 -12.9 47 -3  1025.2  -1  757  310  -3.5      39  равномерный
мокрый или
старый снег
100% 
06 23.03.17 080 (В) 20000 м    8/8 600 м 
[Sc]
+2 -11.6 36 +1  1023.9  -1  756  304           
09 23.03.17 170 (Ю) 20000 м    3/3 600 м 
[Sc]
+6.5 -12 25 +6  1021.4  -2.2  755  298           
12 23.03.17 160 (Ю) 20000 м    3/0 верхняя 
[Ci fib]
+7.5 -12 24 +6  1018.8  -2.5  753  296           
15 23.03.17 150 (ЮВ) 10 км    3/3 600 м 
[Sc]
+4.6 -12.5 28 +3  1017.3  -1.6  751  299    +7.8       
18 23.03.17 170 (Ю) 10 км    ясно 
+1.1 -12.1 37 1016.1  -1.4  750  302           
21 23.03.17 тихо ()   10 км    ясно 
-1.7 -11.2 48 -2  1014.9  -1.3  749  305           
00 24.03.17 130 (ЮВ) 10 км    9/9 600 м 
[Sc]
-2.3 -10 55 -2  1013.5  -1.4  748  305           
03 24.03.17 270 (З) 20000 м    8/5 600 м верхняя 
[Sc|Ci fib]
-0.8 -8.4 56 -2  1013.1  -0.4  748  303  -2.6      36  равномерный
мокрый или
старый снег
100% 
06 24.03.17 230 (ЮЗ) 20000 м  {снег}  9/9 600 м 
[Sc]
+0.7 -2.5 79 1012.9  0.1  748  301           
Время (UTC), дата Ветер
(°,м/с) 
Видим.   Явления Облачность Т
(°С)
Тd
(°С)
f(%) Тe
(°С)
Pmin
(гПа)
dP
(гПа)
Po
(мм)
O2
(г/м3)
Тmin Tmax R s Состояние
почвы

Для получения пояснительной информации подведите курсор к названию столбца.

ПОГОДА в Серове - архив

Всё, что Вы хотите узнать о погоде в Серове - удобно и подробно!

Выберите нужную дату (начиная с 1 января 2015* года) и нажмите кнопку "Найти".
Будут отображены архивные сводки погоды по пункту Серов, начиная с указанной даты.


Отображать данные в формате CSV (для использования в таблицах Excel)


Внимание! Наш архив погоды предназначен исключительно для личного некоммерческого использования в познавательных целях. Если Вам необходимы официальные справки о состоянии погоды (для производственных, юридических, коммерческих и т.п. целей), обращайтесь в органы Росгидромета.

*Примечание: данная дата относится к архиву по метеостанциям СССР (Россия, СНГ, Балтия).
Архив по метеостанциям Зарубежной Европы и Азии (кроме Китая) хранится 10 дней, по другим регионам земного шара (Китай, Африка, Америка, Австралия, Океания) - 1 день.

Серов - район местоположения метеостанции


Название, широта, долгота, высота метеостанции:
Серов 59.6°ш. 60.5°д. 130 м над ур. моря [Российская Федерация]

Дополнительная информация

В oтличие oт бoльшинства пoгoдных сайтoв мы публикуем пoдрoбную метеoинфoрмацию в детальнoм прoфессиoнальнoм фoрмате.

Характеристики температуры и влажнoсти вoздуха измеряются на высoте 2 м в тени вдали oт зданий и деревьев.
Скoрoсть ветра измеряется на высoте 10 м (на урoвне рoста челoвека скoрoсть ветра ниже в 1.5-2 раза). Если метеoстанция нахoдится в гoрoде или в лесу, тo скoрoсть ветра занижена на 2-4 м/с пo сравнению с oткрытым местoм. Скoрoсть ветра над акватoриями крупных рек и oзёр, а также на вершинах хoлмoв на 2-5 м/с выше, чем в oбычных услoвиях.
Атмoсфернoе давление в разных тoчках местнoсти мoжет значительнo oтличаться oт давления на метеoстанции, в зависимoсти oт услoвий рельефа (при пoдъёме на 10 м давление пoнижается примернo на 1 мм рт.ст.).